Weather in Glodnevo

Russia / Bryansk Oblast     52°38′36″N   34°49′08″E
temp.,
°C
wind,
m/s
gust,
m/s
humid.,
%
clouds,
%
prec.,
mm/h
press.,
hPa
HPBL,
m
23 september, thu
thu2300:00+7nnw359798 0.1 1012225
03:00+6nw2496100 0.1 1012234
06:00+6nw239694 0.1 1012127
09:00+7wnw339293 0.1 1013325
12:00+7nw2289100 0.4 1013360
15:00+7w3491100 0.8 1012367
18:00+7w248996 0.1 1012325
21:00+6sw249269 0.1 1012165
24 september, fri
fri2400:00+5ssw3592100 0.0 1011206
03:00+5s489379 0.0 1009425
06:00+4s51195100 0.0 1007451
09:00+6sse81390100 0.0 1003671
12:00+7sse91792100 3.1 1000928
15:00+7sse81594100 6.3 998906
18:00+8s599793 0.6 999461
21:00+8s589799 0.6 1000283
25 september, sat
sat2500:00+8sse3597100 0.1 1001158
03:00+7ssw2397100 0.3 1002113
06:00+7se119699 0.0 100414
09:00+9wsw338782 0.0 1006314
12:00+12wsw447022 0.0 1007918
15:00+12w4669100 0.1 10081162
18:00+11wsw358490 0.1 1009213
21:00+9wsw4893100 0.3 1010418
26 september, sun
sun2600:00+8sw41098100 1.6 1009488
03:00+10w499798 2.7 1009507
06:00+10wnw51096100 0.3 1010615
09:00+10nw6108857 0.3 1012793
12:00+11nw797571 0.1 10141139
15:00+12nw7107081 0.3 10151134
18:00+10nw6117170 0.2 1016777
21:00+8nnw6128138 0.2 1018571
27 september, mon
mon2700:00+8nnw5118499 0.1 1018644
03:00+8nnw4989100 0.1 1020577
06:00+7n4890100 0.0 1021499
09:00+8n468692 0.1 1022496
12:00+11n4575100 0.0 1023661
15:00+12nne3469100 0.0 1024884
18:00+10n348178 0.1 102488
21:00+9nne3888100 0.2 1025272